TimeCST,TemperatureF,Dew PointF,Humidity,Sea Level PressureIn,VisibilityMPH,Wind Direction,Wind SpeedMPH,Gust SpeedMPH,PrecipitationIn,Events,Conditions,WindDirDegrees,DateUTC
12:53 AM,42.1,41.0,96,29.86,1.8,East,3.5,-,N/A,,Overcast,100,2012-12-28 06:53:00
1:21 AM,42.8,41.0,93,29.87,2.0,Calm,Calm,-,N/A,,Overcast,0,2012-12-28 07:21:00
1:53 AM,42.1,41.0,96,29.86,2.0,Calm,Calm,-,N/A,,Overcast,0,2012-12-28 07:53:00
2:05 AM,42.8,41.0,93,29.87,1.5,Calm,Calm,-,N/A,,Overcast,0,2012-12-28 08:05:00
2:53 AM,42.1,41.0,96,29.87,1.5,Calm,Calm,-,N/A,,Overcast,0,2012-12-28 08:53:00
3:13 AM,42.8,41.0,93,29.87,1.2,NE,4.6,-,N/A,,Overcast,40,2012-12-28 09:13:00
3:32 AM,42.8,41.0,93,29.87,1.2,Calm,Calm,-,N/A,,Overcast,0,2012-12-28 09:32:00
3:42 AM,42.8,41.0,93,29.88,1.2,Calm,Calm,-,N/A,,Overcast,0,2012-12-28 09:42:00
3:53 AM,42.1,41.0,96,29.88,1.2,NNE,3.5,-,N/A,,Overcast,20,2012-12-28 09:53:00
4:53 AM,39.9,39.9,100,29.88,1.2,North,6.9,-,N/A,,Overcast,10,2012-12-28 10:53:00
5:50 AM,39.2,39.2,100,29.87,2.5,NE,4.6,-,N/A,,Overcast,40,2012-12-28 11:50:00
5:53 AM,39.0,39.0,100,29.88,2.5,ENE,4.6,-,N/A,,Overcast,70,2012-12-28 11:53:00
6:02 AM,39.2,39.2,100,29.89,3.0,NE,4.6,-,N/A,,Overcast,40,2012-12-28 12:02:00
6:17 AM,39.2,39.2,100,29.90,2.5,North,5.8,-,N/A,,Overcast,360,2012-12-28 12:17:00
6:53 AM,39.0,37.9,96,29.92,2.5,North,6.9,-,N/A,,Overcast,360,2012-12-28 12:53:00
7:00 AM,39.2,37.4,93,29.91,3.0,North,6.9,-,N/A,,Overcast,10,2012-12-28 13:00:00
7:37 AM,39.2,37.4,93,29.92,3.0,North,8.1,-,N/A,,Overcast,360,2012-12-28 13:37:00
7:53 AM,39.0,37.9,96,29.94,2.5,NNW,10.4,-,N/A,,Overcast,340,2012-12-28 13:53:00
8:12 AM,39.2,37.4,93,29.95,0.8,North,8.1,-,N/A,,Overcast,350,2012-12-28 14:12:00
8:53 AM,37.0,37.0,100,29.95,0.2,North,9.2,-,N/A,Fog,Fog,350,2012-12-28 14:53:00
9:35 AM,35.6,35.6,100,29.98,1.5,North,12.7,-,N/A,,Overcast,350,2012-12-28 15:35:00
9:53 AM,36.0,35.1,97,30.01,2.0,NNW,12.7,-,N/A,,Overcast,340,2012-12-28 15:53:00
10:12 AM,35.6,35.6,100,30.01,3.0,NNW,15.0,-,N/A,,Overcast,340,2012-12-28 16:12:00
10:39 AM,35.6,33.8,93,30.03,5.0,NNW,11.5,-,N/A,,Overcast,340,2012-12-28 16:39:00
10:53 AM,36.0,35.1,97,30.04,5.0,NNW,12.7,-,N/A,,Overcast,330,2012-12-28 16:53:00
11:42 AM,33.8,33.8,100,30.05,2.0,NW,15.0,-,N/A,,Overcast,320,2012-12-28 17:42:00
11:53 AM,33.1,30.9,92,30.05,2.0,NW,17.3,24.2,N/A,,Overcast,320,2012-12-28 17:53:00
12:11 PM,33.8,30.2,87,30.03,3.0,NNW,13.8,-,N/A,,Overcast,330,2012-12-28 18:11:00
12:53 PM,33.1,30.0,89,30.03,4.0,NW,16.1,23.0,N/A,,Overcast,320,2012-12-28 18:53:00
1:25 PM,33.8,28.4,81,30.02,7.0,NW,18.4,-,N/A,,Overcast,310,2012-12-28 19:25:00
1:53 PM,35.1,28.9,78,30.02,8.0,NNW,15.0,-,N/A,,Overcast,330,2012-12-28 19:53:00
2:26 PM,35.6,28.4,75,30.02,9.0,NW,13.8,-,N/A,,Overcast,320,2012-12-28 20:26:00
2:53 PM,36.0,27.0,70,30.04,9.0,WNW,18.4,24.2,N/A,,Overcast,300,2012-12-28 20:53:00
3:53 PM,36.0,26.1,67,30.05,10.0,NW,13.8,-,N/A,,Overcast,310,2012-12-28 21:53:00
4:53 PM,35.1,25.0,67,30.08,10.0,NW,13.8,-,N/A,,Mostly Cloudy,310,2012-12-28 22:53:00
5:17 PM,33.8,24.8,70,30.07,10.0,NW,9.2,-,N/A,,Scattered Clouds,320,2012-12-28 23:17:00
5:53 PM,34.0,25.0,70,30.10,10.0,NW,9.2,-,N/A,,Partly Cloudy,320,2012-12-28 23:53:00
6:53 PM,30.9,24.1,76,30.14,10.0,NNW,8.1,-,N/A,,Clear,330,2012-12-29 00:53:00
7:53 PM,28.9,21.9,75,30.17,10.0,NW,6.9,-,N/A,,Clear,320,2012-12-29 01:53:00
8:53 PM,28.0,21.0,75,30.20,10.0,NW,5.8,-,N/A,,Clear,310,2012-12-29 02:53:00
9:53 PM,27.0,19.9,75,30.22,10.0,WNW,3.5,-,N/A,,Clear,290,2012-12-29 03:53:00
10:53 PM,26.1,19.0,75,30.24,10.0,WNW,3.5,-,N/A,,Clear,290,2012-12-29 04:53:00
11:53 PM,24.1,19.0,81,30.26,10.0,WSW,4.6,-,N/A,,Clear,240,2012-12-29 05:53:00